Home   Weather   Louisville   Past weeks
Flag for USA

Past Weather in Louisville, Kentucky, USA — Yesterday and Last 2 Weeks

Now
44 °F

Passing clouds.


Feels Like: 43 °F
Forecast: 61 / 40 °F
Wind: 3 mph from Southwest

Location: Standiford Field

Current Time: Oct 17, 2019 at 9:44:34 am

Latest Report: Oct 17, 2019 at 8:56 am


Visibility: 10 mi

Pressure: 30.05 "Hg

Humidity: 79%

Dew Point: 38 °F

Location of LouisvilleLocation

Past Weather in Louisville — Graph

°F

Louisville Temperature Yesterday

Maximum temperature yesterday: 65 °F (at 12:42 am)
Minimum temperature yesterday: 47 °F (at 11:56 pm)
Average temperature yesterday: 54 °F

High & Low Weather Summary for the Past Weeks

 TemperatureHumidityPressure
High96 °F (Oct 2, 3:56 pm)96% (Oct 8, 5:56 am)30.27 "Hg (Oct 8, 5:56 am)
Low40 °F (Oct 12, 6:56 am)22% (Oct 14, 3:56 pm)29.75 "Hg (Oct 16, 2:56 am)
Average63 °F64%30.07 "Hg
* Reported Oct 2 7:56 am — Oct 17 7:56 am, Louisville. Weather by CustomWeather, © 2019

Note: Actual official high and low records may vary slightly from our data, if they occured in-between our weather recording intervals... More about our weather records

Advertising

Louisville Weather History for the Previous 24 Hours

Scroll right to see more
 ConditionsComfort  
Time TempWeatherWind HumidityBarometerVisibility
7:56 am
Thu, Oct 17
42 °FPassing clouds.3 mph79%30.04 "Hg10 mi
6:56 am42 °FClear.No wind79%30.04 "Hg10 mi
5:56 am42 °FClear.6 mph79%30.03 "Hg10 mi
4:56 am43 °FClear.7 mph76%30.03 "Hg10 mi
3:56 am43 °FPassing clouds.6 mph76%30.03 "Hg10 mi
2:56 am44 °FClear.3 mph76%30.02 "Hg10 mi
1:56 am45 °FClear.No wind74%30.02 "Hg10 mi
12:56 am45 °FClear.5 mph74%30.02 "Hg10 mi
11:56 pm
Wed, Oct 16
47 °FPassing clouds.9 mph69%30.04 "Hg10 mi
10:56 pm48 °FPassing clouds.10 mph66%30.06 "Hg10 mi
9:56 pm49 °FPassing clouds.9 mph66%30.06 "Hg10 mi
8:56 pm50 °FPassing clouds.10 mph63%30.04 "Hg10 mi
7:56 pm51 °FPassing clouds.13 mph61%30.03 "Hg10 mi
6:56 pm52 °FPartly sunny.12 mph59%30.01 "Hg10 mi
5:56 pm53 °FOvercast.14 mph55%29.99 "Hg10 mi
4:56 pm52 °FOvercast.12 mph59%29.98 "Hg10 mi
3:56 pm52 °FOvercast.15 mph57%29.98 "Hg10 mi
2:56 pm52 °FOvercast.14 mph59%29.96 "Hg10 mi
1:56 pm53 °FPartly sunny.12 mph55%29.96 "Hg10 mi
12:56 pm52 °FOvercast.15 mph57%29.96 "Hg10 mi
12:36 pm51 °FOvercast.21 mph61%29.97 "Hg10 mi
11:56 am52 °FPartly sunny.18 mph61%29.96 "Hg10 mi
10:56 am51 °FPartly sunny.15 mph66%29.93 "Hg10 mi
9:56 am50 °FPartly sunny.14 mph71%29.91 "Hg10 mi
9:15 am50 °FPartly sunny.14 mph77%29.90 "Hg10 mi
Weather by CustomWeather, © 2019

See weather overview